| time (UTC) | temp C | wind direction | speed KPH | gust KPH | rain 1hr cm | rain 24hr cm | rain mn cm | humidity % | barometer mb |
| 20260506051029 | 8 | 0.0 | 0.0 | 0.10 | 2.72 | 0.15 | 98 | 1010.0 | |
| 20260506045040 | 8 | 6 | 1.6 | 6.4 | 0.13 | 2.69 | 0.13 | 98 | 1010.2 |
| 20260506044024 | 8 | 2 | 1.6 | 4.8 | 0.15 | 2.67 | 0.10 | 98 | 1010.3 |
| 20260506043029 | 8 | 0.0 | 0.0 | 0.15 | 2.64 | 0.08 | 98 | 1010.3 | |
| 20260506042016 | 8 | 0 | 0.0 | 1.6 | 0.20 | 2.64 | 0.08 | 98 | 1010.3 |
| 20260506041019 | 8 | 270 | 0.0 | 3.2 | 0.23 | 2.62 | 0.05 | 98 | 1010.5 |
| 20260506040023 | 8 | 300 | 1.6 | 4.8 | 0.28 | 2.59 | 0.03 | 98 | 1010.3 |
| 20260506035048 | 9 | 0 | 0.0 | 1.6 | 0.33 | 2.57 | 2.57 | 98 | 1010.1 |
| 20260506034032 | 9 | 265 | 1.6 | 3.2 | 0.36 | 2.51 | 2.51 | 98 | 1010.0 |
| 20260506033018 | 9 | 352 | 1.6 | 4.8 | 0.41 | 2.49 | 2.49 | 98 | 1009.8 |
| 20260506032043 | 9 | 0.0 | 0.0 | 0.43 | 2.44 | 2.44 | 97 | 1009.8 | |
| 20260506031027 | 9 | 0.0 | 0.0 | 0.41 | 2.39 | 2.39 | 97 | 1010.0 | |
| 20260506030031 | 9 | 0.0 | 0.0 | 0.38 | 2.31 | 2.31 | 97 | 1010.2 | |
| 20260506025018 | 9 | 0.0 | 0.0 | 0.30 | 2.24 | 2.24 | 97 | 1010.3 | |
| 20260506024022 | 9 | 0.0 | 0.0 | 0.23 | 2.16 | 2.16 | 97 | 1010.3 | |
| 20260506023026 | 9 | 0.0 | 0.0 | 0.18 | 2.08 | 2.08 | 97 | 1010.3 | |
| 20260506022024 | 9 | 223 | 3.2 | 4.8 | 0.15 | 2.01 | 2.01 | 97 | 1010.0 |
| 20260506021016 | 9 | 248 | 0.0 | 3.2 | 0.15 | 1.98 | 1.98 | 97 | 1010.0 |
| 20260506020020 | 9 | 259 | 1.6 | 4.8 | 0.13 | 1.93 | 1.93 | 97 | 1009.8 |
| 20260506015019 | 9 | 0.0 | 0.0 | 0.15 | 1.93 | 1.93 | 97 | 1009.7 | |
| 20260506014017 | 9 | 0.0 | 0.0 | 0.15 | 1.93 | 1.93 | 97 | 1009.6 | |
| 20260506013015 | 9 | 0.0 | 0.0 | 0.13 | 1.91 | 1.91 | 97 | 1009.5 | |
| 20260506012019 | 9 | 0.0 | 0.0 | 0.13 | 1.85 | 1.85 | 97 | 1009.6 | |
| 20260506011024 | 9 | 0.0 | 0.0 | 0.18 | 1.83 | 1.83 | 97 | 1009.3 | |
| 20260506010029 | 9 | 113 | 3.2 | 6.4 | 0.25 | 1.80 | 1.80 | 97 | 1009.5 |
| 20260506005015 | 9 | 113 | 1.6 | 4.8 | 0.38 | 1.78 | 1.78 | 97 | 1009.6 |
| 20260506004019 | 9 | 113 | 4.8 | 6.4 | 0.41 | 1.78 | 1.78 | 97 | 1009.9 |
| 20260506003023 | 9 | 49 | 1.6 | 4.8 | 0.46 | 1.78 | 1.78 | 96 | 1010.1 |
| 20260506002028 | 9 | 257 | 1.6 | 3.2 | 0.43 | 1.73 | 1.73 | 96 | 1010.0 |
| 20260506001033 | 9 | 0.0 | 0.0 | 0.53 | 1.65 | 1.65 | 96 | 1010.0 | |
| 20260506000038 | 9 | 284 | 3.2 | 8.0 | 0.48 | 1.55 | 1.55 | 96 | 1009.5 |
| 20260505235022 | 9 | 20 | 1.6 | 3.2 | 0.38 | 1.40 | 1.40 | 96 | 1009.6 |
| 20260505234026 | 9 | 0 | 0.0 | 3.2 | 0.48 | 1.37 | 1.37 | 96 | 1009.9 |
| 20260505233031 | 9 | 52 | 1.6 | 3.2 | 0.43 | 1.32 | 1.32 | 96 | 1010.2 |
| 20260505232017 | 9 | 266 | 3.2 | 6.4 | 0.41 | 1.30 | 1.30 | 96 | 1009.8 |
| 20260505231022 | 9 | 261 | 1.6 | 4.8 | 0.28 | 1.12 | 1.12 | 95 | 1010.0 |
| 20260505230026 | 9 | 242 | 3.2 | 4.8 | 0.33 | 1.07 | 1.07 | 95 | 1009.5 |
| 20260505225050 | 9 | 6 | 1.6 | 3.2 | 0.41 | 1.02 | 1.02 | 95 | 1009.8 |
| 20260505224016 | 10 | 241 | 1.6 | 4.8 | 0.41 | 0.89 | 0.89 | 94 | 1009.8 |
| 20260505223020 | 9 | 248 | 0.0 | 1.6 | 0.41 | 0.89 | 0.89 | 94 | 1009.8 |
| 20260505222025 | 9 | 18 | 3.2 | 3.2 | 0.48 | 0.89 | 0.89 | 94 | 1009.6 |
| 20260505221048 | 10 | 37 | 3.2 | 4.8 | 0.53 | 0.84 | 0.84 | 94 | 1009.8 |
| 20260505220015 | 10 | 5 | 3.2 | 6.4 | 0.51 | 0.74 | 0.74 | 93 | 1009.3 |
| 20260505215039 | 10 | 315 | 3.2 | 6.4 | 0.46 | 0.61 | 0.61 | 93 | 1009.3 |
| 20260505214024 | 10 | 1 | 4.8 | 9.7 | 0.38 | 0.48 | 0.48 | 93 | 1009.4 |
| 20260505213028 | 11 | 7 | 6.4 | 9.7 | 0.43 | 0.48 | 0.48 | 93 | 1009.5 |
| 20260505212032 | 11 | 15 | 4.8 | 6.4 | 0.38 | 0.41 | 0.41 | 93 | 1009.5 |
| 20260505211038 | 12 | 12 | 4.8 | 9.7 | 0.30 | 0.30 | 0.30 | 93 | 1009.0 |
| 20260505210022 | 12 | 7 | 3.2 | 6.4 | 0.23 | 0.23 | 0.23 | 92 | 1008.9 |
| 20260505205027 | 12 | 341 | 3.2 | 4.8 | 0.15 | 0.15 | 0.15 | 92 | 1009.0 |
| 20260505204025 | 13 | 303 | 3.2 | 4.8 | 0.10 | 0.10 | 0.10 | 91 | 1009.1 |
| 20260505203018 | 13 | 17 | 3.2 | 4.8 | 0.05 | 0.05 | 0.05 | 89 | 1009.1 |
| 20260505202022 | 13 | 270 | 4.8 | 6.4 | 0.03 | 0.03 | 0.03 | 87 | 1009.1 |
| 20260505201020 | 14 | 301 | 3.2 | 6.4 | 0.00 | 0.00 | 0.00 | 85 | 1009.1 |
| 20260505200018 | 14 | 281 | 4.8 | 6.4 | 0.00 | 0.00 | 0.00 | 84 | 1008.9 |
| 20260505195016 | 15 | 32 | 4.8 | 6.4 | 0.00 | 0.00 | 0.00 | 82 | 1008.9 |
| 20260505194015 | 15 | 315 | 4.8 | 8.0 | 0.00 | 0.00 | 0.00 | 80 | 1008.9 |
| 20260505193045 | 16 | 282 | 4.8 | 8.0 | 0.00 | 0.00 | 0.00 | 77 | 1008.8 |
| 20260505192029 | 16 | 332 | 3.2 | 6.4 | 0.00 | 0.00 | 0.00 | 77 | 1008.9 |
| 20260505191016 | 16 | 322 | 6.4 | 9.7 | 0.00 | 0.00 | 0.00 | 76 | 1008.9 |
| 20260505190021 | 16 | 86 | 4.8 | 6.4 | 0.00 | 0.00 | 0.00 | 77 | 1009.0 |
| 20260505185044 | 16 | 276 | 8.0 | 14.5 | 0.00 | 0.00 | 0.00 | 76 | 1009.0 |
| 20260505184029 | 16 | 271 | 6.4 | 11.3 | 0.00 | 0.00 | 0.00 | 74 | 1009.1 |
| 20260505183015 | 17 | 252 | 4.8 | 9.7 | 0.00 | 0.00 | 0.00 | 73 | 1009.1 |
| 20260505182019 | 17 | 328 | 4.8 | 8.0 | 0.00 | 0.00 | 0.00 | 74 | 1009.0 |
| 20260505181024 | 17 | 291 | 6.4 | 12.9 | 0.00 | 0.00 | 0.00 | 74 | 1008.9 |
| 20260505180029 | 16 | 261 | 6.4 | 11.3 | 0.00 | 0.00 | 0.00 | 74 | 1008.8 |
| 20260505175014 | 16 | 266 | 4.8 | 14.5 | 0.00 | 0.00 | 0.00 | 74 | 1008.8 |
| 20260505174019 | 16 | 285 | 8.0 | 12.9 | 0.00 | 0.00 | 0.00 | 73 | 1008.6 |
| 20260505173023 | 17 | 239 | 8.0 | 11.3 | 0.00 | 0.00 | 0.00 | 71 | 1008.5 |
| 20260505172027 | 17 | 277 | 11.3 | 20.9 | 0.00 | 0.00 | 0.00 | 68 | 1008.3 |
| 20260505171031 | 18 | 261 | 8.0 | 11.3 | 0.00 | 0.00 | 0.00 | 66 | 1008.2 |
| 20260505170018 | 19 | 253 | 8.0 | 12.9 | 0.00 | 0.00 | 0.00 | 65 | 1007.8 |
| 20260505165022 | 20 | 6 | 8.0 | 11.3 | 0.00 | 0.00 | 0.00 | 63 | 1007.7 |
| 20260505164026 | 21 | 263 | 6.4 | 9.7 | 0.00 | 0.00 | 0.00 | 62 | 1007.6 |
| 20260505163031 | 21 | 248 | 9.7 | 14.5 | 0.00 | 0.00 | 0.00 | 61 | 1007.4 |
| 20260505162018 | 20 | 232 | 19.3 | 27.4 | 0.00 | 0.00 | 0.00 | 61 | 1008.0 |
| 20260505161021 | 20 | 233 | 17.7 | 22.5 | 0.00 | 0.00 | 0.00 | 62 | 1007.8 |
| 20260505153020 | 19 | 207 | 14.5 | 17.7 | 0.00 | 0.00 | 0.00 | 65 | 1007.6 |
| 20260505152025 | 18 | 222 | 16.1 | 22.5 | 0.00 | 0.00 | 0.00 | 65 | 1007.9 |
| 20260505151029 | 18 | 232 | 14.5 | 24.1 | 0.00 | 0.00 | 0.00 | 65 | 1007.7 |
| 20260505125018 | 17 | 203 | 17.7 | 24.1 | 0.00 | 0.00 | 0.00 | 67 | 1006.2 |
| 20260505124022 | 17 | 212 | 17.7 | 22.5 | 0.00 | 0.00 | 0.00 | 66 | 1006.0 |
| 20260505123027 | 17 | 198 | 17.7 | 20.9 | 0.00 | 0.00 | 0.00 | 66 | 1005.9 |
| 20260505122051 | 17 | 200 | 17.7 | 24.1 | 0.00 | 0.00 | 0.00 | 66 | 1005.9 |
| 20260505121017 | 17 | 203 | 14.5 | 19.3 | 0.00 | 0.00 | 0.00 | 66 | 1005.9 |
| 20260505120021 | 18 | 205 | 16.1 | 22.5 | 0.00 | 0.00 | 0.00 | 66 | 1005.9 |
| 20260505115026 | 17 | 218 | 16.1 | 19.3 | 0.00 | 0.00 | 0.00 | 66 | 1005.9 |
| 20260505114030 | 17 | 216 | 14.5 | 17.7 | 0.00 | 0.00 | 0.00 | 67 | 1005.7 |
| 20260505113016 | 17 | 205 | 20.9 | 27.4 | 0.00 | 0.00 | 0.00 | 66 | 1005.5 |
| 20260505112021 | 17 | 211 | 17.7 | 24.1 | 0.00 | 0.00 | 0.00 | 67 | 1005.4 |
| 20260505111025 | 17 | 210 | 16.1 | 19.3 | 0.00 | 0.00 | 0.00 | 67 | 1005.4 |
| 20260505102029 | 17 | 199 | 11.3 | 14.5 | 0.00 | 0.00 | 0.00 | 68 | 1004.7 |
| 20260505101015 | 17 | 200 | 11.3 | 14.5 | 0.00 | 0.00 | 0.00 | 68 | 1004.5 |
| 20260505100039 | 17 | 199 | 11.3 | 12.9 | 0.00 | 0.00 | 0.00 | 66 | 1004.3 |
| 20260505095023 | 17 | 203 | 12.9 | 16.1 | 0.00 | 0.00 | 0.00 | 66 | 1004.3 |
| 20260505094027 | 17 | 205 | 14.5 | 19.3 | 0.00 | 0.00 | 0.00 | 66 | 1004.2 |
| 20260505093052 | 18 | 202 | 14.5 | 17.7 | 0.00 | 0.00 | 0.00 | 65 | 1004.1 |
| 20260505092018 | 18 | 205 | 17.7 | 22.5 | 0.00 | 0.00 | 0.00 | 64 | 1004.1 |
| 20260505091023 | 18 | 208 | 16.1 | 19.3 | 0.00 | 0.00 | 0.00 | 65 | 1004.2 |
| 20260505090027 | 18 | 208 | 17.7 | 20.9 | 0.00 | 0.00 | 0.00 | 64 | 1004.2 |
| 20260505085025 | 18 | 204 | 16.1 | 20.9 | 0.00 | 0.00 | 0.00 | 65 | 1004.1 |
| 20260505084017 | 18 | 206 | 12.9 | 16.1 | 0.00 | 0.00 | 0.00 | 65 | 1004.1 |
| 20260505083022 | 18 | 204 | 14.5 | 16.1 | 0.00 | 0.00 | 0.00 | 65 | 1004.0 |
| 20260505082020 | 17 | 205 | 11.3 | 14.5 | 0.00 | 0.00 | 0.00 | 67 | 1004.0 |
| 20260505081019 | 17 | 199 | 12.9 | 16.1 | 0.00 | 0.00 | 0.00 | 67 | 1003.7 |
| 20260505080016 | 17 | 198 | 12.9 | 17.7 | 0.00 | 0.00 | 0.00 | 68 | 1003.8 |
| 20260505075015 | 17 | 192 | 14.5 | 17.7 | 0.00 | 0.00 | 0.00 | 69 | 1003.7 |
| 20260505074025 | 17 | 183 | 11.3 | 12.9 | 0.00 | 0.00 | 0.00 | 71 | 1003.7 |
| 20260505073029 | 16 | 181 | 11.3 | 16.1 | 0.00 | 0.00 | 0.00 | 73 | 1003.7 |
| 20260505072015 | 16 | 173 | 12.9 | 17.7 | 0.00 | 0.00 | 0.00 | 73 | 1003.7 |
| 20260505071020 | 16 | 185 | 12.9 | 17.7 | 0.00 | 0.00 | 0.00 | 72 | 1003.9 |
| 20260505070025 | 16 | 198 | 12.9 | 16.1 | 0.00 | 0.00 | 0.00 | 72 | 1003.9 |
| 20260505065029 | 16 | 185 | 12.9 | 17.7 | 0.00 | 0.00 | 0.00 | 72 | 1004.0 |
| 20260505064015 | 16 | 183 | 12.9 | 17.7 | 0.00 | 0.00 | 0.00 | 73 | 1004.1 |
| 20260505063019 | 16 | 182 | 12.9 | 17.7 | 0.00 | 0.00 | 0.00 | 72 | 1004.1 |
| 20260505062023 | 16 | 188 | 12.9 | 17.7 | 0.00 | 0.00 | 0.00 | 73 | 1004.3 |
| 20260505061028 | 16 | 182 | 14.5 | 17.7 | 0.00 | 0.00 | 0.00 | 73 | 1004.4 |
| 20260505060032 | 16 | 183 | 12.9 | 17.7 | 0.00 | 0.00 | 0.00 | 73 | 1004.7 |